Hourly Data Report for September 02, 2021

WINNIPEG THE FORKS
MANITOBA
Current Station Operator: ECCC - MSC

49°53'18.008" N
97°07'46.007" W
230.00 m
5023262
71579
XWN

Download Data

Hourly Data (September 2021)
Hourly Data Report for September 2, 2021
TIME
LST
Temp Definition
°C
Dew Point Definition
°C
Rel Hum Definition
%
Precip. Amount Definition
mm

Wind Dir Definition
10's deg

Wind Spd Definition
km/h
Visibility Definition
km
Stn Press Definition
kPa
Hmdx Definition


Wind Chill Definition


Weather Definition


00:00 20.7 13.7 64 0.0 34 3   98.52     LegendNANA
01:00 20.5 13.7 65 0.0 31 2   98.55     LegendNANA
02:00 20.5 13.8 65 0.0 6 2   98.51     LegendNANA
03:00 19.9 13.8 68 0.0 24 4   98.54     LegendNANA
04:00 19.9 13.9 69 0.0 20 5   98.56     LegendNANA
05:00 19.6 13.9 70 0.0 22 4   98.58     LegendNANA
06:00 19.2 13.9 72 0.0 20 3   98.56     LegendNANA
07:00 18.9 14.0 73 0.0 25 3   98.56     LegendNANA
08:00 19.4 14.4 73 0.0 19 6   98.56     LegendNANA
09:00 20.0 14.5 71 0.0 20 8   98.58     LegendNANA
10:00 19.9 14.5 71 0.0 20 9   98.51     LegendNANA
11:00 20.8 15.2 70 0.0 21 6   98.51 25   LegendNANA
12:00 21.9 14.7 64 0.0 20 8   98.54 26   LegendNANA
13:00 21.0 14.6 67 0.0 20 5   98.57 25   LegendNANA
14:00 18.9 15.4 80 0.0 22 4   98.57     LegendNANA
15:00 18.0 15.3 85 0.0 9 7   98.44     LegendNANA
16:00 17.9 15.0 84 0.0 10 4   98.48     LegendNANA
17:00 17.9 15.3 85 0.0 4 2   98.46     LegendNANA
18:00 18.1 15.8 86 0.0 24 1   98.49     LegendNANA
19:00 18.2 16.2 88 0.0   0   98.51     LegendNANA
20:00 18.0 16.2 89 0.0   0   98.53     LegendNANA
21:00 18.0 16.6 91 0.0 19 2   98.52     LegendNANA
22:00 18.5 17.1 91 0.0 19 4   98.55     LegendNANA
23:00 18.4 16.6 89 0.0 21 5   98.57     LegendNANA

Notes on Data Quality.

Legend

  • E = Estimated
  • M = Missing
  • NA = Not Available*
  • [empty] = Indicates an unobserved value
Date modified: